Meteo pe oră la Abaclia

Astăzi, 24 Iulie, Sâmbătă

Timp Temperatura Precipitaţii Vânt Presiune Umiditate
00:00 +22°C° 0 mm 1 m/s 756 mmHg 57%
01:00 +22°C° 0 mm 1 m/s 756 mmHg 58%
02:00 +21°C° 0 mm 1 m/s 756 mmHg 59%
03:00 +20°C° 0 mm 2 m/s 756 mmHg 63%
04:00 +19°C° 0 mm 2 m/s 756 mmHg 66%
05:00 +19°C° 0 mm 2 m/s 756 mmHg 69%
06:00 +20°C° 0 mm 2 m/s 756 mmHg 65%
07:00 +23°C° 0 mm 2 m/s 756 mmHg 60%
08:00 +24°C° 0 mm 2 m/s 756 mmHg 55%
09:00 +25°C° 0 mm 3 m/s 756 mmHg 51%
10:00 +27°C° 0 mm 3 m/s 756 mmHg 47%
11:00 +28°C° 0 mm 3 m/s 756 mmHg 42%
12:00 +28°C° 0 mm 3 m/s 756 mmHg 40%
13:00 +29°C° 0 mm 3 m/s 756 mmHg 38%
14:00 +30°C° 0 mm 3 m/s 756 mmHg 36%
15:00 +29°C° 0 mm 3 m/s 756 mmHg 37%
16:00 +29°C° 0 mm 3 m/s 756 mmHg 37%
17:00 +29°C° 0 mm 3 m/s 756 mmHg 38%
18:00 +28°C° 0 mm 3 m/s 756 mmHg 44%
19:00 +26°C° 0 mm 3 m/s 757 mmHg 49%
20:00 +24°C° 0 mm 3 m/s 757 mmHg 55%
21:00 +24°C° 0 mm 2 m/s 757 mmHg 57%
22:00 +23°C° 0 mm 2 m/s 757 mmHg 60%
23:00 +23°C° 0 mm 1 m/s 757 mmHg 63%

Mâine, 25 Iulie, Duminică

Timp Temperatura Precipitaţii Vânt Presiune Umiditate
00:00 +23°C° 0 mm 1 m/s 757 mmHg 64%
01:00 +22°C° 0 mm 1 m/s 757 mmHg 65%
02:00 +21°C° 0 mm 2 m/s 757 mmHg 66%
03:00 +21°C° 0 mm 2 m/s 757 mmHg 67%
04:00 +20°C° 0 mm 2 m/s 757 mmHg 68%
05:00 +20°C° 0 mm 2 m/s 757 mmHg 69%
06:00 +23°C° 0 mm 2 m/s 758 mmHg 63%
07:00 +24°C° 0 mm 3 m/s 758 mmHg 58%
08:00 +26°C° 0 mm 3 m/s 758 mmHg 52%
09:00 +27°C° 0 mm 3 m/s 758 mmHg 47%
10:00 +29°C° 0 mm 2 m/s 758 mmHg 43%
11:00 +30°C° 0 mm 2 m/s 758 mmHg 38%
12:00 +30°C° 0 mm 2 m/s 758 mmHg 36%
13:00 +31°C° 0 mm 2 m/s 758 mmHg 35%
14:00 +31°C° 0 mm 2 m/s 757 mmHg 33%
15:00 +31°C° 0 mm 3 m/s 757 mmHg 36%
16:00 +30°C° 0 mm 4 m/s 757 mmHg 39%
17:00 +30°C° 0 mm 5 m/s 757 mmHg 41%
18:00 +28°C° 0 mm 4 m/s 758 mmHg 44%
19:00 +27°C° 0 mm 3 m/s 758 mmHg 47%
20:00 +26°C° 0 mm 2 m/s 758 mmHg 50%
21:00 +25°C° 0 mm 2 m/s 758 mmHg 50%
22:00 +25°C° 0 mm 1 m/s 758 mmHg 51%
23:00 +24°C° 0 mm 1 m/s 759 mmHg 51%

Poimâine, 26 Iulie, Luni

Timp Temperatura Precipitaţii Vânt Presiune Umiditate
00:00 +24°C° 0 mm 1 m/s 759 mmHg 53%
01:00 +23°C° 0 mm 1 m/s 759 mmHg 54%
02:00 +23°C° 0 mm 1 m/s 759 mmHg 56%
03:00 +22°C° 0 mm 1 m/s 759 mmHg 58%
04:00 +22°C° 0 mm 1 m/s 759 mmHg 60%
05:00 +21°C° 0 mm 1 m/s 759 mmHg 61%
06:00 +23°C° 0 mm 2 m/s 759 mmHg 57%
07:00 +25°C° 0 mm 2 m/s 759 mmHg 53%
08:00 +27°C° 0 mm 2 m/s 759 mmHg 49%
09:00 +28°C° 0 mm 2 m/s 759 mmHg 45%
10:00 +30°C° 0 mm 2 m/s 759 mmHg 40%
11:00 +31°C° 0 mm 2 m/s 759 mmHg 36%
12:00 +32°C° 0 mm 2 m/s 759 mmHg 33%
13:00 +32°C° 0 mm 1 m/s 758 mmHg 31%
14:00 +33°C° 0 mm 1 m/s 758 mmHg 29%
15:00 +34°C° 0 mm 2 m/s 758 mmHg 29%
16:00 +34°C° 0 mm 2 m/s 758 mmHg 29%
17:00 +34°C° 0 mm 2 m/s 758 mmHg 29%
18:00 +32°C° 0 mm 2 m/s 758 mmHg 33%
19:00 +30°C° 0 mm 2 m/s 758 mmHg 37%
20:00 +28°C° 0 mm 2 m/s 758 mmHg 41%
21:00 +27°C° 0 mm 2 m/s 758 mmHg 44%
22:00 +26°C° 0 mm 2 m/s 759 mmHg 47%
23:00 +26°C° 0 mm 1 m/s 759 mmHg 49%

27 Iulie, Marţi

Timp Temperatura Precipitaţii Vânt Presiune Umiditate
00:00 +25°C° 0 mm 1 m/s 759 mmHg 51%
01:00 +25°C° 0 mm 1 m/s 759 mmHg 52%
02:00 +24°C° 0 mm 1 m/s 759 mmHg 53%
03:00 +24°C° 0 mm 1 m/s 759 mmHg 54%
04:00 +24°C° 0 mm 1 m/s 759 mmHg 56%
05:00 +23°C° 0 mm 1 m/s 759 mmHg 57%
06:00 +25°C° 0 mm 1 m/s 759 mmHg 53%
07:00 +27°C° 0 mm 2 m/s 759 mmHg 49%
08:00 +29°C° 0 mm 2 m/s 759 mmHg 44%
09:00 +30°C° 0 mm 2 m/s 759 mmHg 41%
10:00 +33°C° 0 mm 3 m/s 759 mmHg 37%
11:00 +34°C° 0 mm 3 m/s 759 mmHg 33%
12:00 +35°C° 0 mm 3 m/s 759 mmHg 31%
13:00 +35°C° 0 mm 2 m/s 759 mmHg 29%
14:00 +36°C° 0 mm 2 m/s 759 mmHg 28%
15:00 +36°C° 0 mm 2 m/s 758 mmHg 28%
16:00 +36°C° 0 mm 2 m/s 758 mmHg 29%
17:00 +36°C° 0 mm 3 m/s 758 mmHg 29%
18:00 +33°C° 0 mm 3 m/s 758 mmHg 35%
19:00 +30°C° 0 mm 3 m/s 758 mmHg 41%
20:00 +28°C° 0 mm 3 m/s 758 mmHg 48%
21:00 +27°C° 0 mm 3 m/s 758 mmHg 48%
22:00 +27°C° 0 mm 3 m/s 758 mmHg 48%
23:00 +26°C° 0 mm 3 m/s 759 mmHg 48%

28 Iulie, Miercuri

Timp Temperatura Precipitaţii Vânt Presiune Umiditate
00:00 +25°C° 0 mm 3 m/s 758 mmHg 49%
01:00 +25°C° 0 mm 3 m/s 758 mmHg 51%
02:00 +25°C° 0 mm 3 m/s 758 mmHg 52%
03:00 +24°C° 0 mm 3 m/s 758 mmHg 54%
04:00 +24°C° 0 mm 3 m/s 758 mmHg 55%
05:00 +22°C° 0 mm 3 m/s 758 mmHg 56%
06:00 +25°C° 0 mm 3 m/s 758 mmHg 53%
07:00 +27°C° 0 mm 4 m/s 758 mmHg 49%
08:00 +29°C° 0 mm 4 m/s 758 mmHg 45%
09:00 +32°C° 0 mm 5 m/s 758 mmHg 40%
10:00 +33°C° 0 mm 5 m/s 758 mmHg 35%
11:00 +35°C° 0 mm 6 m/s 757 mmHg 30%
12:00 +36°C° 0 mm 6 m/s 757 mmHg 29%
13:00 +36°C° 0 mm 6 m/s 757 mmHg 28%
14:00 +38°C° 0 mm 6 m/s 756 mmHg 27%
15:00 +37°C° 0 mm 5 m/s 756 mmHg 29%
16:00 +37°C° 0 mm 5 m/s 756 mmHg 30%
17:00 +36°C° 0 mm 5 m/s 756 mmHg 31%
18:00 +34°C° 0 mm 5 m/s 756 mmHg 36%
19:00 +32°C° 0 mm 5 m/s 756 mmHg 42%
20:00 +29°C° 0 mm 5 m/s 756 mmHg 47%
21:00 +28°C° 0 mm 5 m/s 756 mmHg 51%
22:00 +27°C° 0 mm 5 m/s 756 mmHg 54%
23:00 +26°C° 0 mm 5 m/s 756 mmHg 58%

29 Iulie, Joi

Timp Temperatura Precipitaţii Vânt Presiune Umiditate
00:00 +26°C° 0 mm 5 m/s 756 mmHg 60%
01:00 +25°C° 0 mm 4 m/s 756 mmHg 62%
02:00 +25°C° 0 mm 4 m/s 756 mmHg 63%
03:00 +25°C° 0 mm 3 m/s 756 mmHg 63%
04:00 +24°C° 0 mm 2 m/s 756 mmHg 63%
05:00 +24°C° 0 mm 2 m/s 756 mmHg 63%
06:00 +25°C° 0 mm 2 m/s 756 mmHg 60%
07:00 +26°C° 0 mm 2 m/s 756 mmHg 56%
08:00 +27°C° 0 mm 2 m/s 756 mmHg 53%
09:00 +29°C° 0 mm 3 m/s 756 mmHg 50%
10:00 +31°C° 0 mm 3 m/s 756 mmHg 46%
11:00 +33°C° 0 mm 3 m/s 756 mmHg 42%
12:00 +34°C° 0 mm 3 m/s 756 mmHg 41%
13:00 +35°C° 0 mm 3 m/s 756 mmHg 40%
14:00 +36°C° 0 mm 3 m/s 756 mmHg 39%
15:00 +36°C° 0 mm 2 m/s 756 mmHg 39%
16:00 +36°C° 0 mm 2 m/s 755 mmHg 40%
17:00 +36°C° 0 mm 2 m/s 755 mmHg 40%
18:00 +33°C° 0.6 mm 3 m/s 756 mmHg 53%
19:00 +29°C° 0.6 mm 4 m/s 756 mmHg 66%
20:00 +26°C° 0.6 mm 4 m/s 756 mmHg 78%
21:00 +25°C° 0.2 mm 4 m/s 756 mmHg 79%
22:00 +25°C° 0.2 mm 3 m/s 756 mmHg 79%
23:00 +25°C° 0.2 mm 2 m/s 756 mmHg 79%
Arată mai mult

Formular de consimțământ

Meteoprog și furnizorii noștri de servicii pot stoca și accesa date personale, precum cookies, identificatori de dispozitiv sau alte tehnologii similare pe dispozitivul dumneavoastră și procesa astfel de date pentru a personaliza conținutul și reclamele, dar și pentru a oferi caracteristici de social media și pentru a analiza traficul.

  • Stocarea și/sau accesarea informațiilor pe dispozitivul dumneavoastră

    Cookies, identificatori de dispozitiv sau alte informații pot fi stocate sau accesate pe dispozitiv în scopurile indicate mai sus.

  • Reclame și conținut personalizat, evaluarea reclamelor și a conținutului, informații despre audiențe și dezvoltarea produselor

    Reclamele și conținutul pot fi personalizate pe baza unui profil. Pot fi adăugate date suplimentare pentru a personaliza mai bine reclamele și conținutul. Performanța reclamelor și conținutului poate fi măsurată. Pot fi obținute informații despre utilizatorii care au văzut reclamele și conținutul. Aceste date pot fi utilizate pentru a dezvolta sau îmbunătăți experiența utilizatorilor, sistemele și software-ul.

Dând clic pe ‘Sunt de acord’, permiteți utilizarea cookie-urilor menționate, a identificatorilor de dispozitiv, balizelor web sau altor tehnologii similare. Setările pot fi modificate din browser-ul dispozitivului dumneavoastră.

În anumite scopuri, interesele legitime pot prima asupra consimțământului. Puteți citi mai multe informații în acest sens în Politica privind Confidențialitatea Datelor și Cookie.